FW6919 Weather Reports


Display with metric or nautical units.
time (UTC)temp
F
wind
direction
speed
MPH
gust
MPH
rain 1hr
in
rain 24hr
in
rain mn
in
humidity
%
barometer
mb
20260510182711 69 105 6.0 16.0 0.00 0.00 0.00 81 1017.7
20260510182215 69 87 7.0 15.0 0.00 0.00 0.00 82 1017.5
20260510181716 68 55 11.0 14.0 0.00 0.00 0.00 82 1017.5
20260510181215 68 67 8.0 17.0 0.00 0.00 0.00 83 1017.5
20260510180714 68 61 4.0 17.0 0.00 0.00 0.00 82 1017.4
20260510180214 68 98 7.0 17.0 0.00 0.00 0.00 82 1017.3
20260510175716 68 67 12.0 14.0 0.00 0.00 0.00 83 1017.4
20260510175212 68 53 6.0 18.0 0.00 0.00 0.00 83 1017.4
20260510174714 68 63 6.0 18.0 0.00 0.00 0.00 83 1017.4
20260510174212 68 54 1.0 20.0 0.00 0.00 0.00 84 1017.5
20260510173710 67 62 12.0 20.0 0.00 0.00 0.00 84 1017.2
20260510173213 67 99 11.0 16.0 0.00 0.00 0.00 83 1017.5
20260510172713 67 80 5.0 16.0 0.00 0.00 0.00 82 1017.6
20260510172215 67 32 6.0 21.0 0.00 0.00 0.00 81 1017.6
20260510171713 67 63 11.0 24.0 0.00 0.00 0.00 80 1017.7
20260510171211 67 55 15.0 24.0 0.00 0.00 0.00 78 1017.8
20260510170711 68 60 12.0 18.0 0.00 0.00 0.00 77 1017.9
20260510170212 68 26 10.0 18.0 0.00 0.00 0.00 77 1018.0
20260510165713 69 61 5.0 24.0 0.00 0.00 0.00 76 1017.9
20260510165210 69 48 7.0 30.0 0.00 0.00 0.00 75 1017.9
20260510164713 70 340 19.0 30.0 0.00 0.00 0.00 73 1017.7
20260510164212 73 11 22.0 26.0 0.00 0.00 0.00 68 1017.6
20260510163711 78 13 10.0 11.0 0.00 0.00 0.00 70 1017.5
20260510163211 79 80 4.0 8.0 0.00 0.00 0.00 70 1016.9
20260510162712 79 128 3.0 10.0 0.00 0.00 0.00 69 1016.7
20260510162215 79 160 6.0 11.0 0.00 0.00 0.00 69 1016.3
20260510161712 79 157 5.0 15.0 0.00 0.00 0.00 68 1016.0
20260510161213 79 158 6.0 15.0 0.00 0.00 0.00 69 1015.6
20260510160712 79 180 6.0 15.0 0.00 0.00 0.00 68 1015.3
20260510160210 78 164 4.0 13.0 0.00 0.00 0.00 68 1015.1
20260510155714 78 161 7.0 19.0 0.00 0.00 0.00 68 1015.1
20260510155211 77 178 6.0 19.0 0.00 0.00 0.00 69 1014.9
20260510154712 77 158 9.0 24.0 0.00 0.00 0.00 69 1014.9
20260510154215 77 165 15.0 24.0 0.00 0.00 0.00 69 1014.9
20260510153713 77 144 8.0 23.0 0.00 0.00 0.00 69 1014.8
20260510153210 76 195 12.0 23.0 0.00 0.00 0.00 69 1014.8
20260510152713 76 195 11.0 23.0 0.00 0.00 0.00 68 1014.9
20260510152212 76 143 9.0 21.0 0.00 0.00 0.00 68 1014.6
20260510151711 75 134 14.0 19.0 0.00 0.00 0.00 68 1014.5
20260510151213 75 140 7.0 19.0 0.00 0.00 0.00 69 1014.6
20260510150712 74 143 11.0 21.0 0.00 0.00 0.00 69 1014.5
20260510150212 74 152 9.0 22.0 0.00 0.00 0.00 69 1014.5
20260510145715 74 127 11.0 22.0 0.00 0.00 0.00 69 1014.5
20260510145212 74 153 13.0 22.0 0.00 0.00 0.00 69 1014.7
20260510144713 73 159 8.0 19.0 0.00 0.00 0.00 69 1015.0
20260510144210 73 126 11.0 19.0 0.00 0.00 0.00 69 1015.0
20260510143712 73 182 9.0 18.0 0.00 0.00 0.00 69 1015.2
20260510143211 73 200 9.0 13.0 0.00 0.00 0.00 71 1015.1
20260510142713 72 126 3.0 18.0 0.00 0.00 0.00 71 1015.1
20260510142210 72 150 8.0 18.0 0.00 0.00 0.00 71 1015.2
20260510141712 72 121 15.0 18.0 0.00 0.00 0.00 72 1015.3
20260510141215 71 128 4.0 18.0 0.00 0.00 0.00 73 1015.4
20260510140714 71 139 13.0 16.0 0.00 0.00 0.00 74 1015.5
20260510140212 70 167 9.0 16.0 0.00 0.00 0.00 75 1015.4
20260510135711 70 104 6.0 15.0 0.00 0.00 0.00 75 1015.6
20260510135211 70 140 8.0 15.0 0.00 0.00 0.00 75 1015.6
20260510134714 69 104 9.0 14.0 0.00 0.00 0.00 75 1015.7
20260510134213 69 146 6.0 13.0 0.00 0.00 0.00 76 1015.7
20260510133712 69 123 8.0 12.0 0.00 0.00 0.00 76 1015.8
20260510133211 69 119 8.0 9.0 0.00 0.00 0.00 76 1015.9
20260510132715 69 121 5.0 10.0 0.00 0.00 0.00 76 1016.1
20260510132213 69 90 4.0 10.0 0.00 0.00 0.00 76 1016.2
20260510131713 69 134 5.0 10.0 0.00 0.00 0.00 76 1016.0
20260510131214 69 125 5.0 7.0 0.00 0.00 0.00 76 1015.9
20260510130713 69 153 3.0 9.0 0.00 0.00 0.00 76 1015.8
20260510130213 69 123 4.0 11.0 0.00 0.00 0.00 76 1015.8
20260510125714 69 99 6.0 11.0 0.00 0.00 0.00 76 1015.5
20260510125212 69 86 5.0 11.0 0.00 0.00 0.00 76 1015.4
20260510124714 69 130 5.0 12.0 0.00 0.00 0.00 76 1015.3
20260510124213 69 116 4.0 12.0 0.00 0.00 0.00 76 1015.3
20260510123713 69 119 7.0 9.0 0.00 0.00 0.00 77 1015.2
20260510123146 69 136 4.0 10.0 0.00 0.00 0.00 76 1015.3
20260510122644 69 103 7.0 11.0 0.00 0.00 0.00 76 1015.0
20260510122044 69 130 9.0 11.0 0.00 0.00 0.00 76 1015.1
20260510121643 69 114 7.0 11.0 0.00 0.00 0.00 76 1014.9
20260510121044 69 107 3.0 14.0 0.00 0.00 0.00 77 1014.9
20260510120542 69 107 6.0 14.0 0.00 0.00 0.00 77 1014.9
20260510120043 69 133 4.0 12.0 0.00 0.00 0.00 77 1014.8
20260510115543 69 143 6.0 14.0 0.00 0.00 0.00 77 1014.8
20260510115041 69 123 8.0 16.0 0.00 0.00 0.00 78 1014.6
20260510114543 69 146 2.0 16.0 0.00 0.00 0.00 78 1014.6
20260510114041 68 101 6.0 16.0 0.00 0.00 0.00 78 1014.6
20260510113541 68 132 5.0 11.0 0.00 0.00 0.00 78 1014.7
20260510113043 68 113 2.0 15.0 0.00 0.00 0.00 78 1014.7
20260510112541 69 135 5.0 15.0 0.00 0.00 0.00 78 1014.7
20260510112041 69 104 3.0 15.0 0.00 0.00 0.00 78 1014.5
20260510111542 69 105 7.0 11.0 0.00 0.00 0.00 78 1014.7
20260510111043 69 142 6.0 13.0 0.00 0.00 0.00 78 1014.7
20260510110542 69 136 3.0 15.0 0.00 0.00 0.00 78 1014.7
20260510110041 69 105 6.0 15.0 0.00 0.00 0.00 78 1014.7
20260510105541 69 136 7.0 13.0 0.00 0.00 0.00 78 1014.6
20260510105040 69 98 7.0 12.0 0.00 0.00 0.00 78 1014.7
20260510104539 69 95 8.0 14.0 0.00 0.00 0.00 77 1014.4
20260510104039 69 113 7.0 15.0 0.00 0.00 0.00 77 1014.3
20260510103540 69 59 5.0 21.0 0.00 0.00 0.00 76 1014.3
20260510103042 70 77 8.0 21.0 0.00 0.00 0.00 75 1014.5
20260510102540 70 82 4.0 19.0 0.00 0.00 0.00 75 1014.4
20260510102040 71 77 7.0 18.0 0.00 0.00 0.00 74 1014.4
20260510101541 71 89 8.0 15.0 0.00 0.00 0.00 75 1014.4
20260510101038 71 101 3.0 15.0 0.00 0.00 0.00 76 1014.2
20260510100540 71 68 4.0 15.0 0.00 0.00 0.00 77 1014.1
20260510100040 71 71 5.0 15.0 0.00 0.00 0.00 77 1014.1
20260510095539 71 66 9.0 18.0 0.00 0.00 0.00 77 1014.0
20260510095040 71 74 4.0 18.0 0.00 0.00 0.00 77 1013.9
20260510094539 71 86 4.0 17.0 0.00 0.00 0.00 78 1013.9
20260510094037 71 70 3.0 15.0 0.00 0.00 0.00 77 1013.8
20260510093539 71 82 8.0 23.0 0.00 0.00 0.00 77 1013.8
20260510093039 72 58 14.0 23.0 0.00 0.00 0.00 77 1013.6
20260510092537 72 181 11.0 22.0 0.00 0.00 0.00 77 1013.6
20260510092041 73 64 9.0 20.0 0.00 0.00 0.00 79 1013.5
20260510091538 74 62 13.0 20.0 0.00 0.00 0.00 82 1013.3
20260510091040 74 50 5.0 19.0 0.00 0.00 0.00 84 1013.1
20260510090537 74 46 6.0 18.0 0.00 0.00 0.00 84 1012.9
20260510090038 75 57 7.0 15.0 0.00 0.00 0.00 83 1012.9
20260510085537 75 50 10.0 12.0 0.00 0.00 0.00 83 1012.8
20260510085036 75 53 4.0 12.0 0.00 0.00 0.00 82 1012.7
20260510084537 75 45 9.0 10.0 0.00 0.00 0.00 81 1012.8
20260510084037 75 17 5.0 7.0 0.00 0.00 0.00 80 1012.6
20260510083537 75 20 3.0 7.0 0.00 0.00 0.00 80 1012.5
20260510083038 75 350 4.0 9.0 0.00 0.00 0.00 79 1012.6
20260510082536 76 17 4.0 11.0 0.00 0.00 0.00 79 1012.6
20260510082038 76 360 4.0 11.0 0.00 0.00 0.00 78 1012.7
20260510081536 75 5 4.0 10.0 0.00 0.00 0.00 78 1012.7
20260510081035 75 37 4.0 6.0 0.00 0.00 0.00 77 1012.6
20260510080537 75 30 4.0 6.0 0.00 0.00 0.00 77 1012.5
20260510080038 75 42 2.0 5.0 0.00 0.00 0.00 77 1012.2
20260510075536 75 122 3.0 3.0 0.00 0.00 0.00 77 1012.0
20260510075035 75 123 1.0 3.0 0.00 0.00 0.00 77 1011.8
20260510074535 75 123 1.0 3.0 0.00 0.00 0.00 76 1011.7
20260510074034 75 123 1.0 3.0 0.00 0.00 0.00 76 1011.8
20260510073535 76 123 3.0 3.0 0.00 0.00 0.00 75 1011.6
20260510073033 76 125 2.0 7.0 0.00 0.00 0.00 75 1011.5
20260510072534 76 126 2.0 7.0 0.00 0.00 0.00 74 1011.5
20260510072035 76 122 3.0 8.0 0.00 0.00 0.00 74 1011.2
20260510071533 76 128 4.0 10.0 0.00 0.00 0.00 74 1011.1
20260510071033 77 102 3.0 10.0 0.00 0.00 0.00 73 1011.1
20260510070533 77 116 9.0 11.0 0.00 0.00 0.00 72 1011.1
20260510070036 77 126 5.0 13.0 0.00 0.00 0.00 72 1011.1
20260510065534 77 146 9.0 13.0 0.00 0.00 0.00 72 1011.1
20260510065033 77 132 4.0 10.0 0.00 0.00 0.00 72 1011.2
20260510064534 77 194 7.0 11.0 0.00 0.00 0.00 71 1011.4
20260510064032 77 119 3.0 17.0 0.00 0.00 0.00 72 1011.6
20260510063532 77 86 8.0 19.0 0.00 0.00 0.00 71 1012.0
20260510063033 77 95 6.0 19.0 0.00 0.00 0.00 72 1012.2
20260510062535 77 44 7.0 19.0 0.00 0.00 0.00 72 1012.6
20260510062034 77 32 6.0 16.0 0.00 0.00 0.00 71 1012.7
20260510061532 77 33 4.0 17.0 0.00 0.00 0.00 70 1012.7
20260510061032 77 34 5.0 17.0 0.00 0.00 0.00 70 1012.6
20260510060531 77 350 13.0 14.0 0.00 0.00 0.00 71 1012.6
20260510060033 77 360 3.0 6.0 0.00 0.00 0.00 71 1012.1
20260510055530 77 31 3.0 8.0 0.00 0.00 0.00 70 1011.1
20260510055033 77 126 2.0 8.0 0.00 0.00 0.00 70 1010.3
20260510054530 77 146 4.0 8.0 0.00 0.00 0.00 70 1010.2
20260510054031 77 117 4.0 8.0 0.00 0.00 0.00 70 1010.1
20260510053534 77 139 3.0 10.0 0.00 0.00 0.00 70 1010.2
20260510053030 77 22 4.0 11.0 0.00 0.00 0.00 70 1010.1
20260510052531 77 21 8.0 11.0 0.00 0.00 0.00 69 1010.0
20260510052030 77 20 3.0 11.0 0.00 0.00 0.00 69 1010.0
20260510051530 78 23 3.0 10.0 0.00 0.00 0.00 69 1010.0
20260510051031 78 19 4.0 10.0 0.00 0.00 0.00 69 1009.9
20260510050529 78 21 4.0 10.0 0.00 0.00 0.00 68 1009.9
20260510050031 78 20 3.0 13.0 0.00 0.00 0.00 68 1009.7
20260510045529 78 21 4.0 13.0 0.00 0.00 0.00 68 1009.4
20260510045029 78 24 4.0 13.0 0.00 0.00 0.00 68 1009.3
20260510044529 78 24 5.0 12.0 0.00 0.00 0.00 67 1009.1
20260510044029 78 26 5.0 12.0 0.00 0.00 0.00 67 1009.2
20260510043530 78 24 5.0 12.0 0.00 0.00 0.00 67 1009.1
20260510043028 78 130 8.0 12.0 0.00 0.00 0.00 66 1009.4
20260510042530 78 132 12.0 12.0 0.00 0.00 0.00 66 1009.5
20260510042028 79 144 5.0 12.0 0.00 0.00 0.00 65 1009.6
20260510041528 79 147 6.0 11.0 0.00 0.00 0.00 65 1009.9
20260510041027 79 138 8.0 10.0 0.00 0.00 0.00 65 1009.8
20260510040528 79 138 5.0 11.0 0.00 0.00 0.00 64 1009.7
20260510040030 79 165 6.0 11.0 0.00 0.00 0.00 64 1009.8
20260510035526 79 142 5.0 11.0 0.00 0.00 0.00 64 1009.8
20260510035027 79 158 5.0 10.0 0.00 0.00 0.00 64 1009.8
20260510034530 79 136 5.0 8.0 0.00 0.00 0.00 64 1009.9
20260510034027 79 161 5.0 9.0 0.00 0.00 0.00 63 1009.9
20260510033526 79 128 3.0 9.0 0.00 0.00 0.00 63 1009.9
20260510033026 79 128 3.0 7.0 0.00 0.00 0.00 62 1009.9
20260510032526 79 116 6.0 7.0 0.00 0.00 0.00 62 1009.9
20260510032028 79 118 4.0 7.0 0.00 0.00 0.00 62 1010.0
20260510031528 79 125 2.0 8.0 0.00 0.00 0.00 62 1010.2
20260510031025 79 140 2.0 8.0 0.00 0.00 0.00 62 1010.0
20260510030527 79 140 4.0 7.0 0.00 0.00 0.00 62 1010.0
20260510030026 79 128 2.0 5.0 0.00 0.00 0.00 62 1009.9
20260510025525 79 123 2.0 6.0 0.00 0.00 0.00 62 1010.1
20260510025027 80 123 3.0 6.0 0.00 0.00 0.00 62 1010.0
20260510024526 80 123 3.0 5.0 0.00 0.00 0.00 61 1010.0
20260510024027 80 124 2.0 4.0 0.00 0.00 0.00 61 1010.0
20260510023526 80 123 1.0 5.0 0.00 0.00 0.00 61 1009.9
20260510023025 81 126 3.0 6.0 0.00 0.00 0.00 60 1009.8
20260510022526 81 129 3.0 6.0 0.00 0.00 0.00 60 1009.7
20260510022025 81 116 2.0 7.0 0.00 0.00 0.00 59 1009.7
20260510021525 82 129 2.0 7.0 0.00 0.00 0.00 59 1009.6
20260510021026 82 132 3.0 7.0 0.00 0.00 0.00 59 1009.4
20260510020525 82 136 4.0 8.0 0.00 0.00 0.00 59 1009.3
20260510020024 82 139 3.0 8.0 0.00 0.00 0.00 59 1009.2
20260510015525 82 148 4.0 10.0 0.00 0.00 0.00 58 1009.1
20260510015024 83 129 4.0 10.0 0.00 0.00 0.00 59 1009.2
20260510014524 82 140 5.0 10.0 0.00 0.00 0.00 59 1009.1
20260510014025 82 142 5.0 8.0 0.00 0.00 0.00 59 1009.0
20260510013522 82 118 6.0 8.0 0.00 0.00 0.00 59 1008.9
20260510013025 82 127 3.0 6.0 0.00 0.00 0.00 58 1008.9
20260510012522 82 127 5.0 6.0 0.00 0.00 0.00 57 1008.8
20260510012024 83 109 2.0 4.0 0.00 0.00 0.00 56 1008.7
20260510011523 83 107 2.0 4.0 0.00 0.00 0.00 57 1008.6
20260510011022 84 107 2.0 4.0 0.00 0.00 0.00 56 1008.5
20260510010524 84 106 3.0 3.0 0.00 0.00 0.00 55 1008.5
20260510010022 84 106 1.0 4.0 0.00 0.00 0.00 55 1008.5
20260510005522 85 106 2.0 6.0 0.00 0.00 0.00 53 1008.4
20260510005021 85 105 2.0 6.0 0.00 0.00 0.00 52 1008.4
20260510004521 85 105 3.0 4.0 0.00 0.00 0.00 52 1008.3
20260510004021 86 104 3.0 4.0 0.00 0.00 0.00 52 1008.3
20260510003522 86 109 2.0 4.0 0.00 0.00 0.00 52 1008.4
20260510003022 86 103 2.0 4.0 0.00 0.00 0.00 51 1008.4
20260510002523 87 103 2.0 4.0 0.00 0.00 0.00 51 1008.4
20260510002020 87 107 3.0 6.0 0.00 0.00 0.00 51 1008.3
20260510001520 87 110 1.0 6.0 0.00 0.00 0.00 51 1008.4
20260510001020 87 91 3.0 9.0 0.00 0.00 0.00 50 1008.4
20260510000518 87 76 1.0 9.0 0.00 0.00 0.00 51 1008.4
20260510000023 88 84 2.0 9.0 0.00 0.00 0.00 50 1008.4
20260509235519 88 92 3.0 6.0 0.00 0.00 0.00 50 1008.6
20260509235020 88 98 1.0 7.0 0.00 0.00 0.00 49 1008.5
20260509234520 88 118 1.0 7.0 0.00 0.00 0.00 49 1008.6
20260509234021 88 118 3.0 7.0 0.00 0.00 0.00 49 1008.7
20260509233520 88 130 3.0 5.0 0.00 0.00 0.00 49 1008.8
20260509233019 88 74 2.0 7.0 0.00 0.00 0.00 49 1008.7
20260509232521 88 116 3.0 8.0 0.00 0.00 0.00 49 1008.8
20260509232019 88 62 5.0 8.0 0.00 0.00 0.00 49 1008.7
20260509231518 88 109 1.0 6.0 0.00 0.00 0.00 50 1008.7
20260509231018 88 140 3.0 7.0 0.00 0.00 0.00 51 1008.7
20260509230519 88 81 2.0 7.0 0.00 0.00 0.00 51 1008.7
20260509230018 88 91 1.0 7.0 0.00 0.00 0.00 50 1008.7
20260509225517 88 96 2.0 8.0 0.00 0.00 0.00 50 1008.7
20260509225018 88 62 1.0 8.0 0.00 0.00 0.00 51 1008.7
20260509224519 88 78 4.0 8.0 0.00 0.00 0.00 51 1008.7
20260509224016 88 33 2.0 10.0 0.00 0.00 0.00 51 1008.7
20260509223516 88 64 6.0 10.0 0.00 0.00 0.00 50 1008.7
20260509223016 88 65 4.0 10.0 0.00 0.00 0.00 51 1008.7
20260509222517 88 82 2.0 11.0 0.00 0.00 0.00 50 1008.8
20260509222018 88 32 5.0 11.0 0.00 0.00 0.00 52 1008.7
20260509221518 88 360 2.0 10.0 0.00 0.00 0.00 51 1008.7
20260509221017 88 51 10.0 10.0 0.00 0.00 0.00 51 1008.7
20260509220516 88 26 6.0 9.0 0.00 0.00 0.00 50 1008.8
20260509220017 88 55 6.0 10.0 0.00 0.00 0.00 51 1008.8
20260509215514 88 87 3.0 10.0 0.00 0.00 0.00 51 1008.8
20260509215022 88 63 8.0 9.0 0.00 0.00 0.00 52 1008.8
20260509214517 88 96 7.0 9.0 0.00 0.00 0.00 51 1008.9
20260509214016 89 96 2.0 9.0 0.00 0.00 0.00 51 1008.9
20260509213515 88 63 2.0 7.0 0.00 0.00 0.00 52 1008.8
20260509213015 88 0 0.0 11.0 0.00 0.00 0.00 54 1008.9
20260509212516 88 121 5.0 11.0 0.00 0.00 0.00 53 1009.0
20260509212016 88 140 4.0 11.0 0.00 0.00 0.00 53 1009.1
20260509211515 88 0 0.0 8.0 0.00 0.00 0.00 54 1009.1
20260509211013 88 153 5.0 8.0 0.00 0.00 0.00 53 1009.1
20260509210516 89 55 5.0 8.0 0.00 0.00 0.00 52 1009.3
20260509210015 89 49 4.0 7.0 0.00 0.00 0.00 53 1009.4
20260509205513 89 41 3.0 9.0 0.00 0.00 0.00 54 1009.5
20260509205012 88 77 1.0 9.0 0.00 0.00 0.00 55 1009.6
20260509204515 88 78 4.0 9.0 0.00 0.00 0.00 55 1009.7
20260509204013 88 67 3.0 9.0 0.00 0.00 0.00 54 1009.7
20260509203513 89 30 5.0 7.0 0.00 0.00 0.00 54 1009.8
20260509203014 88 0 0.0 7.0 0.00 0.00 0.00 53 1009.8
20260509202515 89 61 3.0 7.0 0.00 0.00 0.00 53 1010.0
20260509202013 88 26 1.0 6.0 0.00 0.00 0.00 51 1010.0
20260509201513 88 43 6.0 9.0 0.00 0.00 0.00 53 1010.1
20260509201012 88 53 1.0 9.0 0.00 0.00 0.00 54 1010.1
20260509200513 88 138 2.0 9.0 0.00 0.00 0.00 53 1010.1
20260509200012 88 51 2.0 8.0 0.00 0.00 0.00 52 1010.2
20260509195513 88 56 3.0 8.0 0.00 0.00 0.00 53 1010.3
20260509195010 88 320 1.0 8.0 0.00 0.00 0.00 53 1010.3
20260509194512 87 96 3.0 10.0 0.00 0.00 0.00 54 1010.4
20260509194013 88 131 4.0 10.0 0.00 0.00 0.00 52 1010.4
20260509193512 88 73 2.0 9.0 0.00 0.00 0.00 52 1010.4
20260509193014 88 69 3.0 9.0 0.00 0.00 0.00 55 1010.4
20260509192513 87 269 1.0 10.0 0.00 0.00 0.00 54 1010.5
20260509192012 87 0 0.0 10.0 0.00 0.00 0.00 52 1010.5
20260509191516 88 30 4.0 10.0 0.00 0.00 0.00 52 1010.6
20260509191012 87 0 0.0 7.0 0.00 0.00 0.00 53 1010.6
20260509190512 87 329 2.0 9.0 0.00 0.00 0.00 53 1010.7
20260509190010 87 15 1.0 9.0 0.00 0.00 0.00 53 1010.7
20260509185516 87 321 4.0 8.0 0.00 0.00 0.00 54 1010.8
20260509185012 87 5 3.0 6.0 0.00 0.00 0.00 55 1010.8
20260509184514 86 60 2.0 9.0 0.00 0.00 0.00 54 1010.8
20260509184014 86 57 5.0 9.0 0.00 0.00 0.00 54 1010.9
20260509183512 87 17 4.0 9.0 0.00 0.00 0.00 55 1010.9